Hourly Data Report for October 01, 2017

All times are specified in Local Standard Time (LST). Add 1 hour to adjust for Daylight Saving Time where and when it is observed.

LYNN LAKE
MANITOBA

56°51'50.000" N
101°04'34.000" W
356.60 m
5061645
71078
YYL

Download Data

Hourly Data (October 2017)
Hourly Data Report for October 1, 2017
Temp Definition
°C
Dew Point Temp Definition
°C
Rel Hum Definition
%
Wind Dir Definition
10's deg

Wind Spd Definition
km/h
Visibility Definition
km
Stn Press Definition
kPa
Hmdx Definition


Wind Chill Definition


Weather Definition


TIME
00:00 Legend Double Dagger 10.6 8.1 84 11 9 16.1 96.29     LegendNANA
01:00 Legend Double Dagger 10.4 8.3 87 11 9 16.1 96.27     LegendNANA
02:00 Legend Double Dagger 10.3 8.6 89 9 8 16.1 96.29     LegendNANA
03:00 Legend Double Dagger 10.2 8.8 91 11 9 16.1 96.27     LegendNANA
04:00 Legend Double Dagger 10.3 8.9 91 9 9 16.1 96.27     Rain
05:00 Legend Double Dagger 10.0 8.9 93 9 11 16.1 96.26     LegendNANA
06:00 Legend Double Dagger 10.5 9.3 92 10 13 16.1 96.26     LegendNANA
07:00 Legend Double Dagger 10.9 9.5 91 11 15 16.1 96.28     LegendNANA
08:00 Legend Double Dagger 10.6 10.0 96 11 17 6.4 96.30     Moderate Rain,Fog
09:00 Legend Double Dagger 10.6 10.0 96 11 18 16.1 96.33     Rain
10:00 Legend Double Dagger 10.8 10.4 97 12 22 16.1 96.32     Rain
11:00 Legend Double Dagger 11.0 10.4 96 10 17 16.1 96.32     LegendNANA
12:00 Legend Double Dagger 11.4 10.8 96 10 17 16.1 96.29     LegendNANA
13:00 Legend Double Dagger 11.2 10.3 94 10 18 16.1 96.27     LegendNANA
14:00 Legend Double Dagger 10.8 10.0 95 9 17 16.1 96.26     LegendNANA
15:00 Legend Double Dagger 10.6 9.8 95 8 15 16.1 96.26     LegendNANA
16:00 Legend Double Dagger 10.4 9.8 96 9 13 9.7 96.28     Fog
17:00 Legend Double Dagger 10.5 10.1 97 10 15 11.3 96.29     Rain
18:00 Legend Double Dagger 10.4 10.0 97 10 11 16.1 96.28     LegendNANA
19:00 Legend Double Dagger 10.4 10.0 97 9 9 11.3 96.32     LegendNANA
20:00 Legend Double Dagger 10.2 9.9 98 10 11 9.7 96.33     Rain,Fog
21:00 Legend Double Dagger 10.2 9.9 98 7 8 4.0 96.35     Fog
22:00 Legend Double Dagger 10.2 9.9 98 6 8 4.8 96.35     Fog
23:00 Legend Double Dagger 10.2 9.9 98 4 8 2.4 96.33     Rain,Fog

Notes on Data Quality.

Legend

  • E = Estimated
  • M = Missing
  • NA = Not Available
  • ‡ = Partner data that is not subject to review by the National Climate Archives
Date modified: